STARLINK-36731, 68964

Orbit data source: Space-Track

STARLINK-36731, 68964 is a payload satellite owned by SpaceX/Seattle (US) in LEO that was launched on Fri, 01 May 2026 UTC via an FALCON 9 launch vehicle from the Air Force Eastern Test Range (AFETR). Payload-class satellites include a variety of spacecraft equipped with specific instruments for various scientific and technological missions. These include communications satellites like Starlink; space stations such as the ISS; scientific satellites like the Hubble; Earth observation satellites from companies like Planet Labs, Umbra, and HawkEye 360; GPS; miniature CubeSats for education and research; and military/defense satellites.

Loading next visibility...
Identifier
68964, 2026-099P
Orbit
LEO
Country
Flag of USUS
Related business
Manufacturer
SpaceX/Seattle
Mission
Operational spacecraft
Bus & Motor
STARLINK V2MO, Unknown motor
Mass
575 kg wet, ~530 kg dry
Launch date (UTC)
2026-05-01 (2 months ago)
Launch vehicle
FALCON 9
Launch site
Air Force Eastern Test Range (AFETR)
Object type
Payload
Rocket body
Debris
Shape & HBR
Unknown shape, 14.5 m
Radar Cross Section
Large (>1 m²)

Expand to show TLE details & history
Last TLE update: 16 hours ago

TLE from 16 hours ago
0 STARLINK-36731
1 68964U 26099P   26171.19425774  .00020509  00000-0  61622-3 0  9991
2 68964  53.1601 147.2546 0001111  84.8709 275.2420 15.34412938  7739
Epoch: 2026-06-20T04:39Z
TLE epoch observation values (Epoch: 2026-06-20T04:39:43.868Z)
Latitude
-0.00006°
Longitude
168.90939°
Altitude
463.497 km
Speed
7.636 km/s
True Right ascension
09h 49m 01s
True Declination
0° 00' 00"
Sunlit
Object was in daylight at epoch
Visualization orbit readout
Latitude
Unknown
Longitude
Unknown
Altitude
Unknown
Speed
Unknown
Apparent Right ascension
Unknown
Apparent Declination
Unknown
Sunlit
N/A
Visualization observer readout
Local Sidereal Time
07:13:02
Azimuth
Unknown
Elevation
Unknown
Doppler factor
Unknown
Orbital elements
Apogee altitude
463.682 km
Perigee altitude
462.162 km
Semi-major axis
6,841.059 km
Eccentricity
0.00011
Inclination
53.1601°
RAAN
147.2546°
Arg. of periapsis
84.8709°
True anomaly
275.22932°
Mean anomaly
275.242°
Eccentric anomaly
275.23566°
Mean motion
3.83582 °/min
Orbital period
93.85 mins
BSTAR
0.00061622
Loading maneuver chart data...
Computing Atmospheric mass density...
Loading historical data...
Loading historical data...
Loading historical data...
Loading historical data...
Loading historical data...
Loading historical data...
Loading historical data...

Documentation

Showing up to 5 results
|